Location: Observatory Park - Geauga Park District
(41.5832°N, 81.0716°W)
Time: 17:13:22
(UTC-04:00)

N. Korean satellite - Pass Details

Date: 03 October 2021
Orbit: 450 x 495 km, 97.3° (Epoch: 15 October)

Event Time Altitude Azimuth Distance (km) Brightness Sun altitude
Rises 06:44:57 0° 11° (N) 2,553 10.4 -8.0°
Reaches altitude 10° 06:47:00 10° 10° (N) 1,675 9.4 -7.7°
Maximum altitude 06:50:37 83° 285° (WNW) 499 6.5 -7.0°
Drops below altitude 10° 06:54:14 10° 196° (SSW) 1,680 9.1 -6.3°
Sets 06:56:18 0° 195° (SSW) 2,560 10.1 -5.9°
